Change the Weather History Date:

Tuesday, February 12, 2013

  Actual Average Record
Temperature  
Mean Temperature 37 °F 32 °F  
Max Temperature 43 °F 39 °F 58 °F (1924)
Min Temperature 31 °F 26 °F -18 °F (1884)
Degree Days  
Heating Degree Days 28 33  
Month to date heating degree days 383 398  
Since 1 July heating degree days 4051 4331  
Cooling Degree Days 0 0  
Month to date cooling degree days 0 0  
Year to date cooling degree days 0 0  
Moisture  
Dew Point 31 °F    
Average Humidity 80    
Maximum Humidity 92    
Minimum Humidity 67    
Precipitation  
Precipitation 0.00 in 0.05 in 0.59 in (1902)
Month to date precipitation 0.04 0.57  
Year to date precipitation 1.67 2.36  
Snow  
Snow 0.00 in 0.20 in 7.70 in (1938)
Month to date snowfall 0.3 3.2  
Since 1 July snowfall 38.5 36.7  
Snow Depth 0.00 in    
Sea Level Pressure  
Sea Level Pressure 30.25 in    
Wind  
Wind Speed 9 mph (SSW)    
Max Wind Speed 21 mph    
Max Gust Speed 28 mph    
Visibility 7 miles    
Events      
T = Trace of Precipitation, MM = Missing Value Source: NWS Daily Summary

Daily Weather History Graph

Daily Weather History Graph

Search for Another Location

Airport or City:

Trip Planner

Search our weather history database for the weather conditions in past years. The results will help you decide how hot, cold, wet, or windy it might be!

Date:

Astronomy

Feb. 12, 2013 Rise Set
Actual Time 7:00 AM PST 5:09 PM PST
Civil Twilight 6:28 AM PST 5:41 PM PST
Nautical Twilight 5:51 AM PST 6:17 PM PST
Astronomical Twilight 5:16 AM PST 6:53 PM PST
Moon 7:44 AM PST (2/12) 8:32 PM PST (2/12)
Length of Visible Light 11h 13m
Length of Day
10h 09m
Waxing Crescent, 8% of the Moon is Illuminated
Feb 12
Waxing Crescent
Feb 17
First Quarter
Feb 25
Full
Mar 4
Last Quarter
Mar 11
New

Hourly Weather History & Observations

Time (PST) Temp. Windchill Dew Point Humidity Pressure Visibility Wind Dir Wind Speed Gust Speed Precip Events Conditions
12:53 AM 33.1 °F 30.0 °F 28.9 °F 85% 30.24 in 10.0 mi South 3.5 mph - N/A   Overcast
1:53 AM 33.1 °F 28.7 °F 28.9 °F 85% 30.24 in 10.0 mi South 4.6 mph - N/A   Overcast
2:53 AM 32.0 °F 25.6 °F 28.9 °F 88% 30.25 in 10.0 mi SSW 6.9 mph - N/A   Overcast
3:19 AM 32.0 °F 24.8 °F 28.4 °F 87% 30.20 in 10.0 mi South 8.1 mph - N/A   Overcast
3:53 AM 30.9 °F 25.2 °F 28.0 °F 89% 30.26 in 9.0 mi SW 5.8 mph - N/A   Overcast
4:53 AM 30.9 °F 26.2 °F 28.9 °F 92% 30.27 in 7.0 mi SW 4.6 mph - N/A   Overcast
5:53 AM 30.9 °F 25.2 °F 28.9 °F 92% 30.28 in 6.0 mi SW 5.8 mph - N/A   Overcast
6:45 AM 30.2 °F - 28.4 °F 93% 30.23 in 1.0 mi Calm Calm - N/A   Overcast
6:53 AM 30.9 °F - 28.9 °F 92% 30.29 in 1.0 mi Calm Calm - N/A   Overcast
7:04 AM 30.2 °F - 28.4 °F 93% 30.23 in 1.0 mi Calm Calm - N/A   Overcast
7:53 AM 30.9 °F 24.3 °F 28.9 °F 92% 30.29 in 1.0 mi SSE 6.9 mph - N/A   Overcast
8:39 AM 30.2 °F 25.4 °F 28.4 °F 93% 30.25 in 1.0 mi South 4.6 mph - N/A   Overcast
8:53 AM 30.9 °F 26.2 °F 28.9 °F 92% 30.32 in 3.0 mi SSE 4.6 mph - N/A   Overcast
9:53 AM 32.0 °F 25.6 °F 30.0 °F 92% 30.30 in 3.0 mi South 6.9 mph - N/A   Overcast
10:02 AM 32.0 °F 25.6 °F 30.2 °F 93% 30.25 in 1.0 mi SSW 6.9 mph - N/A   Overcast
10:51 AM 33.8 °F 26.4 °F 30.2 °F 87% 30.25 in 0.5 mi South 9.2 mph - N/A   Overcast
10:53 AM 33.1 °F 25.5 °F 30.9 °F 92% 30.31 in 0.5 mi South 9.2 mph - N/A   Overcast
11:40 AM 33.8 °F 27.0 °F 30.2 °F 87% 30.26 in 3.0 mi SSW 8.1 mph - N/A   Overcast
11:53 AM 34.0 °F 26.0 °F 30.9 °F 89% 30.31 in 3.0 mi SSW 10.4 mph - N/A   Overcast
12:53 PM 35.1 °F 28.6 °F 30.0 °F 82% 30.31 in 10.0 mi SSW 8.1 mph - N/A   Mostly Cloudy
1:53 PM 37.9 °F 30.9 °F 32.0 °F 79% 30.30 in 10.0 mi SSW 10.4 mph - N/A   Mostly Cloudy
2:53 PM 41.0 °F 33.9 °F 33.1 °F 73% 30.25 in 10.0 mi SSW 12.7 mph 23.0 mph N/A   Mostly Cloudy
3:53 PM 42.1 °F 35.7 °F 32.0 °F 67% 30.26 in 10.0 mi SW 11.5 mph - N/A   Mostly Cloudy
4:53 PM 39.9 °F 33.4 °F 30.9 °F 70% 30.25 in 10.0 mi SW 10.4 mph - N/A   Mostly Cloudy
5:53 PM 39.9 °F 33.4 °F 30.9 °F 70% 30.24 in 10.0 mi SSW 10.4 mph - N/A   Mostly Cloudy
6:53 PM 39.9 °F 32.1 °F 34.0 °F 79% 30.23 in 10.0 mi SSW 13.8 mph - N/A   Overcast
7:53 PM 39.9 °F 31.4 °F 35.1 °F 83% 30.20 in 10.0 mi SSW 16.1 mph - N/A   Overcast
8:53 PM 39.9 °F 31.8 °F 36.0 °F 86% 30.18 in 10.0 mi SSW 15.0 mph 24.2 mph N/A   Overcast
9:53 PM 39.0 °F 31.0 °F 35.1 °F 86% 30.17 in 10.0 mi SSW 13.8 mph - N/A   Overcast
10:53 PM 37.9 °F 30.5 °F 34.0 °F 86% 30.17 in 10.0 mi SSW 11.5 mph 19.6 mph N/A   Overcast
11:53 PM 37.0 °F 29.3 °F 33.1 °F 86% 30.17 in 10.0 mi SSW 11.5 mph - N/A   Overcast